Informationen zur Loipe auf der Atzenberger Höhe
 
20.01.2019Höhe
ü. NN
ZeitTemperatur (°C)Nieder-
schlag
Luft-
feuchte
Luft-
druck
Wind
StationaktuellMinimumMaximumaktuellMaximum
Aldingen654 m00:26-6,5-6,7 (05:59)-6,4 (14:43)0,0 l/m²93%1016,10,0 km/h (0 Bft) S-SW14,8 km/h (3 Bft) S-SO (13:07)
Allmannsweiler625 m00:25-10,0-10,0 (00:25)-9,8 (00:00)0,0 l/m²94%1015,40,0 km/h (0 Bft) SO0,0 km/h (0 Bft) SO (00:00)
Allmendingen541 m00:25-10,3-10,3 (00:20)-9,9 (01:00)0,0 l/m²90%1015,70,0 km/h (0 Bft) S-SW16,1 km/h (3 Bft) SO (09:05)
Altshausen574 m00:25-9,3-9,3 (00:21)-9,1 (00:00)0,0 l/m²87%1011,40,0 km/h (0 Bft) W-SW0,0 km/h (0 Bft) W-SW (00:00)
Amstetten-Reutti663 m00:25-10,9-10,9 (00:25)-10,3 (14:40)0,0 l/m²91%1015,20,0 km/h (0 Bft) S27,4 km/h (4 Bft) O (09:45)
Amtzell-Grenis677 m00:25-8,8-8,9 (00:05)-8,7 (00:20)0,0 l/m²87%1016,83,2 km/h (1 Bft) N-NW4,8 km/h (1 Bft) N (00:00)
Aulendorf570 m00:25-9,0-9,0 (00:25)-8,8 (00:00)0,0 l/m²86%1014,90,0 km/h (0 Bft) S-SW0,0 km/h (0 Bft) S-SW (00:00)
Bad Krozingen233 m00:25-3,7-3,8 (08:50)-3,5 (15:35)0,0 l/m²93%1015,30,0 km/h (0 Bft) S-SW6,6 km/h (2 Bft) W-NW (13:25)
Bad Saulgau595 m00:25-8,6-8,6 (00:10)-8,5 (15:15)0,0 l/m²91%1014,21,6 km/h (1 Bft) W-NW12,9 km/h (3 Bft) W (07:00)
Bad Saulgau-Lampertsweiler627 m00:25-8,2-8,2 (00:25)-8,0 (00:00)0,0 l/m²89%1017,80,0 km/h (0 Bft) O-SO0,0 km/h (0 Bft) O-SO (00:00)
Bad Schussenried572 m00:25-8,2-8,2 (00:20)-8,1 (00:00)0,0 l/m²89%1013,50,0 km/h (0 Bft) SW0,0 km/h (0 Bft) SW (00:00)
Bergatreute615 m00:25-9,4-9,9 (00:05)-9,4 (00:25)0,0 l/m²94%1015,70,0 km/h (0 Bft) NO3,2 km/h (1 Bft) N (00:15)
Biberach (Riss), Boehringer533 m00:20-8,5-8,5 (00:20)-8,4 (00:20)0,0 l/m²93%1013,61,1 km/h (1 Bft) SW7,9 km/h (2 Bft) SW (00:10)
Biberach (Riss), Realschule553 m00:25-9,7-9,8 (00:00)-9,7 (00:25)0,0 l/m²93%1016,70,0 km/h (0 Bft) O-SO0,0 km/h (0 Bft) N (00:00)
Bodnegg-Rotheidlen677 m00:25-8,7-8,8 (00:00)-8,7 (00:10)0,0 l/m²94%1015,60,0 km/h (0 Bft) W-NW0,0 km/h (0 Bft) W-NW (00:00)
Burgrieden523 m00:25-8,9-8,9 (00:15)-8,6 (00:00)0,0 l/m²87%1015,40,0 km/h (0 Bft) S0,0 km/h (0 Bft) S (00:00)
Burgrieden-Hochstetten510 m00:25-9,0-9,0 (00:00)-8,9 (01:00)0,0 l/m²91%1015,73,2 km/h (1 Bft) SO14,5 km/h (3 Bft) SO (08:15)
Ebersbach579 m00:25-9,2-9,3 (00:00)-9,2 (00:10)0,0 l/m²93%1016,30,0 km/h (0 Bft) O-NO0,0 km/h (0 Bft) O (00:00)
Ebersbach-Boos605 m00:25-9,7-9,7 (00:05)-9,6 (00:00)0,0 l/m²94%1016,10,0 km/h (0 Bft) O-SO0,0 km/h (0 Bft) S (00:00)
Ebersbach-Menzenweiler661 m00:25-7,2-7,3 (00:25)-7,1 (00:00)0,0 l/m²96%1015,94,8 km/h (1 Bft) O-NO6,4 km/h (2 Bft) O-NO (00:00)
Erlenmoos645 m00:25-10,2-10,2 (00:25)-9,9 (00:00)0,0 l/m²84%1015,70,0 km/h (0 Bft) SO0,0 km/h (0 Bft) W (00:00)
Ertingen569 m00:30-8,0-8,1 (00:00)-8,0 (00:10)0,0 l/m²92%1015,30,0 km/h (0 Bft) O-SO0,0 km/h (0 Bft) O-SO (00:00)
Friedrichshafen405 m00:25-5,8-5,8 (00:15)-5,7 (15:25)0,0 l/m²89%1015,63,2 km/h (1 Bft) N-NO11,3 km/h (2 Bft) N-NO (01:00)
Günzburg443 m00:25-7,7-7,7 (00:10)-7,4 (00:00)0,0 l/m²90%1012,90,0 km/h (0 Bft) W-SW3,2 km/h (1 Bft) W-SW (00:00)
Höchsten802 m00:25-5,8-5,9 (00:00)-5,8 (00:20)0,0 l/m²93%1013,40,0 km/h (0 Bft) SO0,0 km/h (0 Bft) N (00:00)
Horgenzell618 m00:150,0-5,1 (00:00)0,0 (00:05)0,0 l/m²0%1013,40,0 km/h (0 Bft) N8,0 km/h (2 Bft) O-NO (00:00)
Hoßkirch632 m00:25-9,1-9,3 (00:05)-9,1 (00:20)0,0 l/m²92%1014,60,0 km/h (0 Bft) SW0,0 km/h (0 Bft) SW (00:00)
Isny, Am Dreifingerbach695 m00:25-10,2-10,3 (00:05)-10,2 (00:25)0,0 l/m²90%1015,60,0 km/h (0 Bft) O4,8 km/h (1 Bft) O (00:15)
Isny, Weidachweg706 m00:25-10,6-10,8 (00:05)-10,3 (00:00)0,0 l/m²89%1017,10,0 km/h (0 Bft) O3,2 km/h (1 Bft) O (00:00)
Kappel-Grafenhausen163 m00:20-3,5-3,5 (08:20)-3,4 (14:45)0,0 l/m²91%1013,30,0 km/h (0 Bft) N6,4 km/h (2 Bft) N-NO (10:25)
Kirchberg an der Iller584 m00:25-8,3-8,3 (22:15)-8,1 (01:00)0,0 l/m²88%1005,20,0 km/h (0 Bft) N-NW8,0 km/h (2 Bft) S-SW (01:55)
Kißlegg-Staibshof709 m00:25-7,8-7,8 (00:05)-7,7 (00:00)0,0 l/m²95%1015,40,0 km/h (0 Bft) N-NO0,0 km/h (0 Bft) N-NO (00:00)
Kressbronn398 m00:28-5,7-5,7 (00:22)-5,4 (00:00)0,0 l/m²86%1014,40,0 km/h (0 Bft) NO0,0 km/h (0 Bft) NO (00:00)
Kreuzthal-Steinberg-Alpe930 m00:10-4,1-4,9 (00:00)-3,9 (00:10)0,0 l/m²94%1015,02,5 km/h (1 Bft) W15,8 km/h (3 Bft) W-NW (00:10)
Kreuzthal-Steinberggipfel1040 m00:20-3,6-3,9 (00:10)-3,3 (00:20)-81%1015,014,0 km/h (3 Bft) SW26,3 km/h (4 Bft) W (00:20)
Kristberg im Montafon (AT)1425 m00:25-8,2-8,3 (00:00)-8,2 (00:10)0,0 l/m²71%1015,28,0 km/h (2 Bft) N9,7 km/h (2 Bft) N (00:00)
Laupheim500 m00:25-8,3-8,3 (00:15)-8,2 (00:00)0,0 l/m²90%1014,90,0 km/h (0 Bft) SW0,0 km/h (0 Bft) SW (00:00)
Lindau-Insel420 m00:00-5,1-5,1 (08:30)-5,1 (14:45)0,0 l/m²86%1014,84,8 km/h (1 Bft) N11,3 km/h (2 Bft) W (13:55)
Lindau-Stadt412 m00:25-6,3-6,3 (07:45)-6,3 (11:50)0,0 l/m²87%1015,14,8 km/h (1 Bft) N-NO9,7 km/h (2 Bft) N (01:10)
Maierhöfen im Allgäu733 m00:30-14,6-14,8 (00:00)-14,4 (00:20)0,0 l/m²89%1016,90,0 km/h (0 Bft) SW1,6 km/h (1 Bft) SW (00:15)
Maselheim-Sulmingen548 m00:25-9,9-10,1 (00:05)-9,9 (14:15)0,0 l/m²92%1016,86,4 km/h (2 Bft) O-SO12,9 km/h (3 Bft) SO (08:40)
Mietingen-Baltringen528 m00:25-9,4-9,5 (00:25)-9,3 (00:00)0,0 l/m²87%1017,53,2 km/h (1 Bft) W3,2 km/h (1 Bft) W (00:20)
Mindelheim-Apfeltrach620 m00:26-14,3-14,3 (00:17)-14,1 (00:00)0,0 l/m²88%1017,01,6 km/h (1 Bft) S4,8 km/h (1 Bft) S (00:01)
Neresheim552 m00:00-8,8-8,8 (00:00)-8,8 (00:00)0,0 l/m²94%1012,20,0 km/h (0 Bft) S0,0 km/h (0 Bft) S (00:00)
Neukirch570 m00:25-8,3-8,3 (00:05)-8,2 (13:00)0,0 l/m²92%1015,86,4 km/h (2 Bft) NO9,7 km/h (2 Bft) W-NW (11:50)
Ochsenhausen, Birkenstraße613 m00:25-11,6-11,6 (00:20)-11,4 (14:15)0,0 l/m²84%1016,23,2 km/h (1 Bft) O11,3 km/h (2 Bft) O-NO (08:05)
Ochsenhausen, Unt. Wiesen575 m00:25-11,3-11,3 (00:05)-11,2 (00:00)0,0 l/m²89%1017,38,0 km/h (2 Bft) S8,0 km/h (2 Bft) S-SO (00:25)
Ostrach619 m00:25-8,8-8,9 (23:45)-8,8 (14:40)0,0 l/m²92%1014,10,0 km/h (0 Bft) S-SO12,9 km/h (3 Bft) N (07:10)
Ravensburg428 m00:25-6,8-6,9 (00:15)-6,8 (00:00)0,0 l/m²90%1014,86,4 km/h (2 Bft) N8,0 km/h (2 Bft) N (00:00)
Ravensburg-Wernsreute511 m00:25-7,1-7,1 (22:45)-7,0 (15:25)0,0 l/m²91%1017,58,0 km/h (2 Bft) N19,3 km/h (3 Bft) N-NO (01:05)
Reichenbach an der Fils343 m00:25-6,7-6,7 (00:25)-6,5 (00:00)0,0 l/m²86%1017,017,7 km/h (3 Bft) O-NO17,7 km/h (3 Bft) O-NO (00:25)
Reinstetten559 m00:25-11,2-11,2 (00:25)-11,0 (00:00)0,0 l/m²91%1016,30,0 km/h (0 Bft) S-SW0,0 km/h (0 Bft) S-SW (00:00)
Riedlingen530 m00:25-6,7-6,9 (00:00)-6,7 (00:25)0,0 l/m²93%1015,40,0 km/h (0 Bft) O-NO0,0 km/h (0 Bft) O-NO (00:00)
Schemmerhofen520 m00:25-9,4-9,4 (00:20)-9,2 (00:00)0,0 l/m²92%1015,20,0 km/h (0 Bft) SW0,0 km/h (0 Bft) SW (00:00)
Silbertal im Montafon (AT)884 m00:25-7,9-7,9 (00:15)-7,8 (00:00)0,0 l/m²89%1017,50,0 km/h (0 Bft) SO0,0 km/h (0 Bft) SO (00:00)
Tettnang466 m00:25-6,2-6,2 (00:25)-6,0 (00:00)0,0 l/m²88%1013,90,0 km/h (0 Bft) NO3,2 km/h (1 Bft) NO (00:00)
Tuttlingen662 m00:25-5,6-5,9 (00:05)-5,6 (00:20)0,0 l/m²90%1015,30,0 km/h (0 Bft) O-SO3,2 km/h (1 Bft) O-SO (00:00)
Ummendorf547 m00:25-10,9-10,9 (00:20)-10,2 (00:00)0,0 l/m²89%1016,70,0 km/h (0 Bft) O-SO3,2 km/h (1 Bft) O-SO (00:05)
Ummendorf-Fischbach558 m00:25-11,6-11,7 (00:05)-11,4 (00:00)0,0 l/m²89%1017,20,0 km/h (0 Bft) S0,0 km/h (0 Bft) S (00:00)
Waldburg707 m00:25-8,6-8,6 (00:25)-8,3 (00:00)0,0 l/m²93%1015,20,0 km/h (0 Bft) N0,0 km/h (0 Bft) N (00:00)
Waltenhofen im Allgäu720 m00:25-13,2-13,8 (00:00)-13,2 (00:25)0,0 l/m²91%1016,40,0 km/h (0 Bft) S-SW0,0 km/h (0 Bft) S-SW (00:00)
Weingarten500 m00:25-8,7-8,7 (00:10)-8,6 (00:00)0,0 l/m²89%1015,44,8 km/h (1 Bft) O4,8 km/h (1 Bft) O (00:10)
Winterlingen785 m00:00-7,1-7,1 (00:00)-7,1 (00:00)0,0 l/m²96%1013,54,3 km/h (1 Bft) W-SW4,3 km/h (1 Bft) W-SW (00:00)

Werbung
niederschlagsdatenbank | info | login - erfassung

Sollten Sie Interesse haben, an der Niederschlagsdatenbank teilzunehmen, finden Sie > hier < weitere Informationen.

Niederschlagsdaten der Station Leutkirch - Unterer Auenweg 25

Klärwerk Leutkirch, Wilfried Westphal

Niederschlagsstation aufgenommen ins Stationsnetz der Wetterwarte Süd am 23.02.2010
Monat: .
Anmerkung:0,0 = nicht messbarer Niederschlag
 -  = kein Niederschlag

Stationsdaten

Höhe

640 m

Lage

Auf Google Maps ansehen

Beschreibung

Die Messstation befindet sich auf dem Gelände des Klärwerks Leutkirch, welches sich in der Gemarkung der Leutkircher Heide befindet.
< Dezember 2017Februar 2018 >

Januar 2018

TagNiederschlagBemerkung
01.1,6
Regen
02.1,7
Regen
03.5,9
Regen
04.22,5
Regen
05.5,5
Regen
06.0,0
07.0,0
08.-
09.-
10.-
11.-
12.-
13.-
14.-
15.2,4
Regen
16.19,7
Regen Schnee
17.2,9
Schnee
18.15,2
Schnee
19.1,2
Regen
20.10,3
Schnee
21.15,8
Regen Schnee
22.18,1
Regen
23.0,5
Regen
24.0,0
25.-
26.-
27.-
28.-
29.0,2
Regen
30.-
31.8,3
Regen
Gesamt:131,8 
Die Spalten "Tag" und "Niederschlag" lassen sich durch Klicken auf den Spaltenkopf sortieren.
Die Angaben sind in l/m².

< Dezember 2017Februar 2018 >


Monats- und Jahresniederschlag


Wetterbeobachtungen Legende:

  • Regen
  • Nieselregen
  • Schneeregen
  • Schnee
  • Graupel
  • Eiskörner
  • Hagel
  • Bodennebel
  • Gewitter
  • Nebelnässe
  • Schneegriesel

Grafische Darstellung der Niederschläge der Station Leutkirch Januar 2018

 
wetterstationen
wetterstationen
- derzeit 73 Stationen
niederschlagsdatenbank
wetterstationen
- kartographische Darstellung
niederschlagsdatenbank
niederschlagsstationen
- derzeit 103 Stationen
niederschlagsdatenbank
niederschlagsstationen
- kartographische Darstellung
 
 
Sa. 7.30 Uhr - So. 7.30 Uhr (MEZ)
1.Füramoos0,0 l/m²
2.Ulm0,0 l/m²
 
  treffpunkt & service
--- Anzeigen --------------------------------
zugriffe:
insgesamt: 40.647.351
aktueller monat: 320.432
heute: 166
momentan online: 19
 
 
monatshöchstwert: 653.625
vorheriger monat: 400.931
gestern: 13.178
tageshöchstwert: 45.129
 
wetterwarte süd
 
konradstraße 3
info@wetterwarte-sued.com
roland roth
 
88427 bad schussenried